TimeCST,TemperatureF,Dew PointF,Humidity,Sea Level PressureIn,VisibilityMPH,Wind Direction,Wind SpeedMPH,Gust SpeedMPH,PrecipitationIn,Events,Conditions,WindDirDegrees,DateUTC
12:53 AM,37.9,37.9,100,29.36,2.5,Calm,Calm,-,0.03,Rain,Light Rain,0,2013-02-26 06:53:00
1:16 AM,37.4,37.4,100,29.34,3.0,Calm,Calm,-,0.00,Rain,Light Rain,0,2013-02-26 07:16:00
1:39 AM,37.4,37.4,100,29.34,4.0,WNW,4.6,-,0.01,,Overcast,300,2013-02-26 07:39:00
1:53 AM,37.9,37.9,100,29.34,5.0,WSW,3.5,-,0.02,Rain,Light Rain,250,2013-02-26 07:53:00
2:16 AM,37.4,37.4,100,29.33,3.0,Calm,Calm,-,N/A,Rain,Light Rain,0,2013-02-26 08:16:00
2:45 AM,37.4,37.4,100,29.32,5.0,NNW,6.9,-,N/A,Rain,Light Rain,330,2013-02-26 08:45:00
2:53 AM,37.0,37.0,100,29.31,5.0,NNW,5.8,-,N/A,Rain,Light Rain,330,2013-02-26 08:53:00
3:53 AM,36.0,36.0,100,29.31,8.0,Variable,5.8,-,0.02,,Overcast,0,2013-02-26 09:53:00
4:19 AM,35.6,35.6,100,29.30,8.0,NW,4.6,-,0.01,,Overcast,310,2013-02-26 10:19:00
4:53 AM,36.0,36.0,100,29.31,7.0,WNW,3.5,-,0.03,,Overcast,290,2013-02-26 10:53:00
5:53 AM,35.1,35.1,100,29.31,8.0,Calm,Calm,-,0.02,Rain,Light Rain,0,2013-02-26 11:53:00
6:31 AM,35.6,35.6,100,29.32,4.0,West,3.5,-,0.01,Rain,Light Rain,280,2013-02-26 12:31:00
6:53 AM,34.0,34.0,100,29.34,5.0,Variable,3.5,-,0.02,Rain,Light Freezing Rain,0,2013-02-26 12:53:00
7:13 AM,33.8,33.8,100,29.34,3.0,West,3.5,-,0.01,Snow,Light Snow,280,2013-02-26 13:13:00
7:22 AM,33.8,33.8,100,29.34,2.5,West,6.9,-,0.01,Snow,Light Snow,280,2013-02-26 13:22:00
7:50 AM,33.8,33.8,100,29.36,4.0,Variable,4.6,-,0.02,Snow,Light Snow,0,2013-02-26 13:50:00
7:53 AM,33.1,33.1,100,29.37,5.0,Variable,5.8,-,0.02,Snow,Light Snow,0,2013-02-26 13:53:00
8:31 AM,33.8,33.8,100,29.38,7.0,West,8.1,-,0.02,,Overcast,270,2013-02-26 14:31:00
8:53 AM,34.0,34.0,100,29.40,7.0,West,8.1,-,0.02,Snow,Light Snow,270,2013-02-26 14:53:00
9:53 AM,34.0,34.0,100,29.42,2.5,Variable,4.6,-,0.02,Snow,Light Snow,0,2013-02-26 15:53:00
10:00 AM,33.8,33.8,100,29.41,4.0,West,8.1,-,0.01,Snow,Light Snow,280,2013-02-26 16:00:00
10:42 AM,35.6,35.6,100,29.43,7.0,WNW,9.2,-,0.02,Rain,Light Freezing Rain,290,2013-02-26 16:42:00
10:53 AM,35.1,35.1,100,29.45,6.0,WNW,8.1,-,0.02,Rain,Light Freezing Rain,290,2013-02-26 16:53:00
11:10 AM,35.6,35.6,100,29.45,9.0,West,9.2,-,0.01,,Overcast,280,2013-02-26 17:10:00
11:53 AM,36.0,36.0,100,29.48,8.0,West,9.2,16.1,0.02,,Overcast,280,2013-02-26 17:53:00
12:53 PM,36.0,35.1,97,29.50,10.0,West,12.7,24.2,0.02,,Overcast,280,2013-02-26 18:53:00
1:36 PM,35.6,35.6,100,29.51,10.0,WNW,10.4,23.0,0.02,,Overcast,290,2013-02-26 19:36:00
1:53 PM,36.0,32.0,86,29.53,10.0,WNW,8.1,24.2,0.02,,Overcast,290,2013-02-26 19:53:00
2:53 PM,36.0,30.9,82,29.55,9.0,WNW,13.8,21.9,0.02,,Overcast,290,2013-02-26 20:53:00
3:53 PM,36.0,30.0,79,29.60,9.0,WNW,10.4,19.6,0.02,,Overcast,300,2013-02-26 21:53:00
4:53 PM,35.1,30.0,82,29.63,8.0,WNW,11.5,18.4,0.01,,Overcast,290,2013-02-26 22:53:00
5:53 PM,35.1,30.0,82,29.68,9.0,WNW,11.5,23.0,0.02,,Overcast,300,2013-02-26 23:53:00
6:53 PM,35.1,30.0,82,29.72,9.0,Variable,6.9,20.7,0.01,,Overcast,0,2013-02-27 00:53:00
7:53 PM,35.1,28.9,78,29.74,9.0,NW,8.1,21.9,0.01,,Overcast,310,2013-02-27 01:53:00
8:50 PM,35.6,28.4,75,29.75,9.0,NW,8.1,18.4,0.01,,Overcast,310,2013-02-27 02:50:00
8:53 PM,35.1,28.0,76,29.77,9.0,WNW,11.5,26.5,0.01,,Overcast,300,2013-02-27 02:53:00
9:18 PM,35.6,28.4,75,29.76,9.0,NW,9.2,18.4,N/A,,Overcast,310,2013-02-27 03:18:00
9:45 PM,35.6,28.4,75,29.77,9.0,WNW,8.1,18.4,0.01,,Overcast,300,2013-02-27 03:45:00
9:53 PM,35.1,28.0,76,29.79,9.0,WNW,10.4,23.0,0.01,,Overcast,300,2013-02-27 03:53:00
10:34 PM,35.6,28.4,75,29.79,9.0,NW,9.2,19.6,0.01,,Overcast,310,2013-02-27 04:34:00
10:53 PM,35.1,28.9,78,29.82,9.0,WNW,6.9,16.1,0.01,,Overcast,300,2013-02-27 04:53:00
11:53 PM,35.1,28.9,78,29.83,8.0,Variable,5.8,18.4,0.01,,Overcast,0,2013-02-27 05:53:00